Weather in Vladimiro-Aleksandrovskoe

Russia / Primorsky Krai     42°53′26″N   133°04′37″E
temp.,
°C
wind,
m/s
gust,
m/s
humid.,
%
clouds,
%
prec.,
mm/h
press.,
hPa
HPBL,
m
11 april, sun
sun1101:00+2ssw11850 0.0 103110
04:00+1s00880 0.0 103110
07:00+1se01915 0.0 103210
10:00+8ssw256559 0.0 1031650
13:00+11ssw4658100 0.0 10301009
16:00+11ssw4763100 0.0 1029956
19:00+9ssw3779100 0.0 1029588
22:00+6s239154 0.0 1030149
12 april, mon
mon1201:00+5sse119741 0.0 102941
04:00+4sse119779 0.0 102834
07:00+4sse1196100 0.0 102832
10:00+9ssw3772100 0.0 1026664
13:00+11ssw4754100 0.0 10241013
16:00+11ssw4854100 0.0 10221014
19:00+9s2671100 0.0 1020628
22:00+7se1385100 0.6 1018188
13 april, tue
tue1301:00+7s1489100 0.4 1016215
04:00+7s2698100 3.3 1011431
07:00+6se1299100 7.4 1008145
10:00+7nne1397100 14.8 1006171
13:00+7n6106686 0.3 10051101
16:00+5n7135610 0.3 10071278
19:00+3n515450 0.0 10091830
22:000nw25550 0.0 1012186
14 april, wed
wed1401:00−1nw14545 0.0 1014208
04:00−1w14547 0.0 1014232
07:00−1wnw25531 0.0 1015425
10:00+2nw48310 0.0 10161815
13:00+5w592999 0.0 10153090
16:00+6wsw4103216 0.0 10142249
19:00+3sw375143 0.0 1016583
22:000sw1179100 0.0 101717
15 april, thu
thu1501:000nnw00845 0.0 101710
04:00−1ne11853 0.0 101810
07:000ene11855 0.0 101825
10:00+7s236963 0.0 1017493
13:00+7ssw4978100 0.1 1016994
16:00+8ssw5117785 0.5 10151127
19:00+6s5138094 0.5 10141150
22:00+5sse4148248 0.6 1015994